Temperature
22 21 20 21 26 29 28 28 29 28 28 26 26 26 26 25 25 23 21 20 19 19 19 19 19 19 19 19 19 18 18 18 18 18 18 18 18 18 18 18 18 18 18 18 18 18 18 18 18
21 21 21 25 29 28 28 29 28 28 27 26 25 25 25 24 22 21 20 19 19 19 19 19 19 19 19 19 19 18 18 18 18 18 18 18 18 18 18 18 18 18 18 18 18 18 18 18 18
21 21 24 29 29 29 28 29 28 27 26 26 26 25 24 23 21 21 20 19 19 19 19 19 19 19 19 19 18 18 18 18 18 18 18 18 18 18 18 18 18 18 18 18 18 18 18 18 18
21 23 27 30 29 29 29 29 28 28 26 26 26 25 23 21 21 20 19 19 19 19 19 18 19 19 18 18 18 18 18 18 18 18 18 18 18 18 18 18 18 18 18 18 18 18 18 18 18
23 27 30 30 29 30 30 29 28 28 27 26 26 25 23 20 20 19 19 19 19 19 19 18 19 18 18 18 18 18 18 18 18 18 18 18 18 18 18 18 18 18 18 18 18 18 18 18 18
27 30 30 30 29 30 30 28 28 28 27 26 25 25 22 20 20 19 19 19 19 19 19 18 18 18 18 18 18 18 18 18 18 18 18 18 18 18 18 18 18 18 18 18 18 18 18 18 18
28 31 31 30 30 30 29 28 28 28 27 26 25 25 23 20 20 19 19 19 19 19 19 18 18 18 18 18 18 18 18 18 18 18 18 18 18 18 18 18 18 18 18 18 18 18 18 18 18
27 31 31 31 30 30 29 28 27 27 27 25 25 25 24 21 20 20 19 19 19 19 18 18 18 18 18 18 18 18 18 18 18 18 18 18 18 18 18 18 18 18 18 18 18 18 18 18 18
27 31 31 31 31 30 29 29 27 26 26 25 24 24 22 20 20 20 20 19 19 18 18 18 18 18 18 18 18 18 18 18 18 17 18 17 17 17 17 17 18 18 18 18 18 18 18 18 18
29 31 31 31 31 31 30 29 28 28 27 26 24 22 21 20 20 20 20 19 19 18 18 18 18 17 18 18 17 17 17 17 17 17 17 17 17 17 17 17 18 18 18 18 18 18 18 18 17
31 31 31 31 30 30 30 29 28 29 28 27 25 22 21 21 20 20 20 19 19 18 18 18 18 18 18 18 18 17 17 17 17 17 17 17 17 17 17 17 17 18 18 17 17 17 17 17 18
31 31 31 31 30 30 30 29 29 28 28 26 24 23 22 21 21 20 20 19 18 18 18 18 18 18 18 18 17 17 17 17 17 17 17 17 17 17 17 17 17 17 17 17 17 17 17 17 17
31 31 30 30 30 30 29 29 29 28 26 25 23 22 22 22 21 20 20 19 18 18 18 18 18 18 18 17 17 17 17 17 17 17 17 17 17 17 17 17 17 17 17 17 17 18 17 17 17
31 31 30 30 30 29 30 29 29 27 26 24 23 23 22 22 21 20 20 19 18 18 18 18 18 18 18 18 18 17 17 17 17 17 17 17 17 17 17 17 17 17 17 17 18 18 17 17 17
30 31 31 31 30 30 30 30 29 27 26 25 24 23 22 22 21 20 20 19 19 18 18 18 18 18 18 17 17 17 17 17 17 17 17 17 17 17 17 17 17 17 17 17 18 18 17 17 17
32 32 31 31 31 30 30 30 29 27 26 25 24 23 23 22 21 20 20 19 19 19 18 18 18 18 18 18 18 17 17 17 17 17 17 17 17 17 17 17 17 17 17 17 17 18 17 17 17
32 32 31 31 31 31 31 30 29 27 27 26 25 24 23 22 21 20 20 19 19 19 18 18 18 18 18 18 18 17 17 17 17 17 17 17 17 17 17 17 17 17 17 17 17 17 17 17 17
31 32 31 31 31 31 30 30 29 27 27 27 25 25 24 23 22 21 20 20 19 19 19 18 18 18 18 18 18 17 17 17 17 17 17 17 17 17 17 17 17 17 17 17 17 17 17 17 17
32 31 31 31 31 30 30 30 29 28 27 27 26 25 24 23 22 21 20 20 19 19 19 19 18 18 18 18 18 17 17 17 17 17 17 17 17 17 17 17 17 17 17 17 17 17 17 17 17
31 31 31 31 30 30 30 30 30 28 27 27 26 25 25 24 22 21 20 20 19 19 19 19 19 18 18 18 18 17 17 17 17 17 17 17 17 17 17 17 17 17 17 17 17 17 17 17 17
31 31 31 30 30 30 30 30 29 29 27 26 26 26 25 24 23 22 21 20 20 19 19 19 19 19 18 18 18 17 17 17 17 17 17 17 17 17 17 17 17 17 17 17 17 17 17 17 17
31 31 31 30 30 30 30 30 30 29 28 27 26 26 25 24 23 22 21 20 20 20 19 19 19 19 19 18 18 18 18 18 18 17 17 17 17 17 17 17 17 17 17 17 17 17 17 17 17
31 31 31 31 30 30 30 30 30 29 28 28 27 26 26 25 24 22 22 21 20 20 19 19 19 19 19 18 18 18 18 18 18 17 17 17 17 17 17 17 17 17 17 17 17 17 17 17 17
30 30 30 30 31 29 30 30 29 29 28 28 27 26 25 24 23 22 22 21 20 20 19 19 19 19 19 18 18 18 18 18 18 18 18 17 17 17 17 17 17 17 17 17 17 17 17 17 17
30 30 30 29 30 29 30 29 29 29 28 28 27 26 25 24 23 22 21 21 21 20 20 19 19 19 19 18 18 18 18 18 18 18 17 17 17 17 17 17 17 17 17 17 17 17 17 17 17
30 30 29 29 29 30 29 29 29 29 28 27 26 26 25 24 23 22 21 21 20 20 19 19 19 19 18 18 18 18 18 18 18 17 17 17 17 18 17 17 17 17 17 17 17 17 17 17 17
30 30 31 30 30 29 30 29 29 28 28 27 26 26 25 24 23 22 22 21 20 20 19 19 19 19 18 18 18 18 18 18 18 17 17 17 17 17 17 17 17 17 17 17 17 17 17 17 16
30 31 30 30 28 28 29 29 29 28 27 27 26 26 25 24 23 22 22 21 20 20 19 19 19 19 19 18 18 18 18 18 18 18 17 17 17 17 17 17 17 17 17 17 17 17 16 17 16
29 29 29 30 29 29 28 29 29 28 27 27 26 25 24 23 23 22 21 21 20 20 19 19 19 19 18 18 18 18 18 18 18 17 18 18 18 17 17 17 17 17 17 17 17 16 16 16 16
29 29 29 29 28 29 29 29 28 27 27 26 26 24 23 23 22 22 21 20 20 20 19 19 19 18 18 18 18 18 18 18 17 17 17 17 17 17 17 17 17 17 17 17 16 16 16 16 16
Wind_Speed
12 9 5 4 3 4 10 9 7 6 6 7 6 5 6 7 6 5 4 5 5 5 6 7 7 7 7 9 10 10 10 10 10 10 10 11 11 11 12 13 14 15 15 15 16 16 16 16 15
9 6 5 4 2 8 10 8 9 8 6 5 5 5 6 7 7 5 4 5 5 5 6 7 8 8 9 10 10 10 10 10 10 10 10 10 10 10 10 12 13 14 15 15 16 16 16 15 15
7 6 4 1 8 10 10 8 8 7 6 4 4 5 5 6 5 4 5 5 5 6 6 9 10 9 9 10 10 10 10 9 9 9 9 9 10 10 10 11 12 13 14 15 15 15 15 15 15
4 4 3 3 11 11 8 7 6 5 5 5 4 6 6 6 4 5 6 5 5 6 7 10 10 9 9 9 9 9 9 9 9 9 9 9 9 9 10 10 11 12 14 14 14 14 14 14 13
5 3 2 8 11 9 7 6 4 5 5 5 5 6 7 6 6 7 6 5 5 6 8 11 11 10 9 9 9 8 8 8 8 9 9 8 9 9 9 10 10 11 12 13 14 14 14 14 13
3 2 4 9 10 7 6 5 4 6 7 6 5 6 6 6 6 6 5 5 5 6 7 10 11 9 8 9 9 8 7 8 8 8 8 8 8 9 9 9 9 10 11 12 12 13 13 13 12
4 3 7 8 8 8 6 4 4 5 6 5 3 5 6 6 6 6 6 6 6 6 6 7 8 9 9 9 8 8 7 7 8 8 8 7 7 8 9 9 9 10 11 10 11 12 12 11 11
4 2 6 8 8 9 6 4 4 4 5 5 3 4 6 8 7 7 6 6 6 6 6 6 6 6 6 8 8 7 7 7 7 7 7 7 7 8 9 9 9 9 10 10 10 11 11 11 11
4 1 8 9 7 7 5 4 5 4 7 6 5 7 9 11 9 7 7 6 6 5 5 5 5 5 5 6 7 7 7 7 8 7 7 6 6 7 8 8 9 10 10 10 9 10 10 11 12
3 4 9 7 6 5 4 4 5 5 6 6 7 10 12 11 9 7 6 6 5 5 4 4 4 4 4 4 5 5 5 6 5 6 6 6 5 5 6 9 9 10 10 10 9 8 10 10 9
1 4 5 4 4 3 4 5 4 3 4 5 8 11 12 10 8 7 6 6 5 4 4 4 4 3 3 3 4 4 4 4 5 5 5 5 5 5 5 6 7 8 9 8 9 9 7 6 5
1 3 3 3 2 2 3 5 4 3 6 7 10 13 12 10 8 7 6 5 5 4 4 3 3 3 3 3 3 3 4 3 4 4 4 4 3 3 4 3 5 5 5 6 6 5 5 5 5
0 2 3 2 1 2 3 4 4 5 6 9 12 12 12 10 8 7 6 5 5 4 3 3 3 3 3 2 2 3 3 3 4 4 4 4 3 3 3 3 4 4 5 5 5 4 5 4 4
2 2 1 2 3 4 3 4 3 5 8 11 12 11 11 9 8 7 6 5 4 4 3 3 2 3 3 3 2 2 3 3 3 3 4 3 3 3 3 3 3 3 4 4 4 4 5 4 4
2 1 3 3 2 3 3 3 3 7 9 11 11 10 10 9 8 7 6 5 5 4 3 3 3 3 3 2 2 2 3 3 3 3 4 3 3 3 2 2 3 3 4 4 4 4 4 4 4
4 3 1 3 1 2 5 2 6 8 9 10 10 10 9 8 8 7 6 6 5 4 4 3 2 3 3 2 2 2 2 3 3 3 4 3 3 3 3 2 2 3 3 3 3 3 3 3 3
5 3 1 2 1 1 3 1 5 7 8 9 9 9 9 9 8 7 6 6 5 5 4 4 3 3 3 3 3 2 2 2 2 3 3 3 3 3 2 2 2 3 3 3 2 3 2 3 2
4 4 2 2 1 2 2 1 3 6 7 8 9 9 9 9 8 8 7 6 6 5 4 4 4 3 3 3 3 2 2 2 2 2 2 3 3 3 2 2 2 2 2 2 2 3 2 1 2
7 6 5 3 1 2 2 1 2 4 6 7 8 9 9 9 9 8 8 7 6 6 5 5 5 5 4 3 3 3 3 2 2 2 3 3 3 3 2 2 3 2 2 2 3 2 3 2 1
8 8 5 2 1 3 2 2 1 4 5 6 8 9 9 9 9 9 9 8 7 7 7 6 6 6 5 4 3 2 2 2 2 2 3 2 3 3 2 2 2 2 2 2 2 2 1 1 1
9 8 6 4 3 4 4 2 2 4 4 5 6 7 8 9 10 10 10 9 8 8 8 7 7 7 6 5 4 3 3 2 2 2 2 2 3 3 2 2 1 1 2 2 2 2 3 1 1
8 6 7 6 7 4 5 4 1 3 4 4 6 7 8 9 10 10 9 9 8 8 8 8 8 7 6 6 5 5 4 3 2 2 2 3 3 3 2 2 1 1 1 1 2 2 2 2 2
6 4 6 7 8 7 5 6 1 3 1 2 4 6 8 9 9 9 9 9 8 7 7 8 8 7 6 6 6 5 4 3 3 3 3 2 2 2 2 2 2 1 1 1 1 1 2 2 2
5 6 6 8 9 8 6 7 3 1 2 1 2 4 6 8 8 8 8 8 7 7 7 7 7 7 6 6 6 6 5 4 3 3 3 3 3 2 3 3 2 2 2 2 2 2 3 2 2
9 8 6 7 7 6 4 5 3 1 1 1 1 3 5 7 8 7 7 7 7 7 7 7 7 7 7 7 6 6 6 5 5 4 4 3 3 3 3 3 3 3 3 3 3 3 3 3 4
9 10 8 7 7 5 6 5 1 2 2 1 1 2 4 5 7 7 7 7 7 7 8 8 8 8 7 7 6 6 6 5 4 4 4 3 3 3 3 3 4 4 4 4 4 4 4 3 4
8 9 9 9 9 8 5 5 4 2 1 2 2 2 3 4 5 7 7 7 7 7 7 8 8 8 7 7 7 6 6 5 4 4 4 4 3 3 4 4 5 5 5 4 4 4 4 4 4
6 7 7 9 8 9 7 7 5 2 1 1 1 2 2 3 4 5 6 6 7 7 7 7 7 7 7 7 6 6 6 6 5 5 5 4 4 3 4 4 4 4 5 5 4 4 4 4 4
7 8 7 8 9 9 8 3 1 2 1 2 2 2 2 2 3 4 4 5 6 6 6 7 7 7 7 6 6 5 5 5 6 5 5 5 5 4 5 5 4 4 5 5 5 5 5 5 5
8 9 10 9 9 9 10 4 4 2 1 1 1 2 1 1 2 3 4 4 4 5 6 6 7 7 6 6 6 6 5 5 5 5 5 5 5 5 5 5 5 5 5 5 6 6 6 6 6
Wind_Direction
173 178 202 230 229 78 62 60 59 60 58 56 54 45 44 36 20 57 73 74 73 82 97 112 111 118 123 126 127 126 124 124 128 130 132 135 136 140 146 148 148 145 147 150 152 148 145 145 145
171 182 223 242 31 69 64 57 60 55 67 80 68 53 52 55 47 78 86 80 78 84 94 98 107 116 118 120 122 121 119 121 126 130 132 133 135 136 139 147 148 148 149 150 149 147 149 149 147
176 221 263 345 54 59 63 59 68 75 76 62 61 51 44 51 64 76 85 97 88 85 95 100 106 113 116 119 121 120 121 121 125 131 135 134 133 136 139 143 147 148 149 149 150 150 150 148 147
208 229 233 62 65 59 58 67 80 88 79 62 70 77 72 56 58 84 104 101 93 92 100 104 108 111 112 115 117 120 120 120 124 128 130 129 131 136 138 141 146 151 154 153 154 153 150 150 150
241 262 105 76 68 64 66 71 71 60 64 67 67 79 79 72 80 98 105 99 97 95 98 105 108 109 109 112 113 116 121 123 126 125 126 127 130 134 137 143 150 155 157 157 156 156 156 156 155
249 258 59 66 69 69 76 79 71 64 73 76 74 85 81 95 101 103 102 90 91 100 100 105 117 112 112 118 118 117 115 120 126 126 126 128 133 136 139 142 149 153 156 158 158 159 160 161 160
301 17 58 64 70 74 70 71 59 68 78 77 81 83 100 110 105 107 102 93 92 96 95 103 113 119 123 123 121 124 123 123 128 129 130 130 133 135 141 143 147 150 153 158 159 161 163 165 166
296 312 67 63 62 69 83 84 71 70 81 86 73 77 103 124 123 115 106 97 93 88 87 95 100 108 119 125 125 126 129 131 131 131 131 134 139 139 144 147 149 150 155 160 161 165 166 168 172
270 331 56 48 49 72 100 102 95 95 101 94 69 69 107 128 130 122 112 102 95 83 83 93 98 102 111 120 127 135 134 137 145 142 140 150 144 141 146 135 144 155 160 162 165 167 169 176 177
272 29 47 34 32 65 106 104 117 130 115 106 102 103 121 133 135 128 117 112 99 88 88 92 90 96 103 112 118 128 129 132 140 137 139 138 131 132 127 124 141 152 160 165 166 169 178 193 176
315 16 24 37 40 63 119 123 137 121 99 107 127 133 137 139 137 131 124 116 108 107 98 98 95 97 94 102 115 121 124 128 134 133 130 129 137 136 132 136 142 149 162 168 166 178 177 176 167
310 15 356 16 40 104 122 130 127 91 71 102 129 138 144 146 142 139 133 126 120 115 104 93 93 84 79 81 109 127 129 131 125 128 134 134 132 128 128 138 141 154 161 162 168 167 166 167 165
248 16 18 28 127 121 137 131 117 105 105 122 132 142 148 149 145 143 136 129 124 119 113 101 99 94 86 88 121 122 126 130 130 137 137 139 139 139 141 137 146 156 152 158 165 164 158 158 155
13 5 58 97 125 142 149 134 139 117 133 137 144 150 151 151 149 146 147 140 137 137 130 121 117 110 103 106 113 120 132 129 129 135 133 147 147 145 150 147 147 149 153 152 159 156 159 158 153
237 229 142 113 137 148 188 148 136 136 147 151 155 155 155 155 153 156 160 161 155 151 144 144 141 123 124 124 133 132 134 127 132 129 139 156 158 147 152 148 149 145 152 154 160 154 152 155 156
232 238 157 111 146 168 248 68 110 147 161 163 163 162 164 163 165 165 166 169 167 160 158 162 155 144 143 138 144 138 136 131 137 139 144 149 152 157 166 154 145 149 159 164 157 165 154 155 161
225 268 357 98 139 233 260 7 118 160 173 172 173 172 172 170 174 172 175 175 177 173 169 167 164 154 154 149 152 145 137 142 145 146 142 141 151 154 163 143 129 160 161 169 174 136 167 159 154
267 285 297 333 48 273 283 307 140 169 185 181 179 179 180 180 179 176 180 181 180 179 177 173 168 162 165 159 158 156 144 150 150 148 131 136 141 138 150 153 137 163 155 150 143 135 153 172 170
275 279 285 311 355 284 298 303 156 169 192 191 188 187 188 185 177 176 179 184 183 182 183 184 178 169 178 177 180 168 165 166 149 151 137 139 130 127 145 136 133 164 154 157 155 153 159 172 157
256 259 264 262 176 270 298 299 153 168 197 201 198 195 195 187 179 181 185 188 190 188 191 189 187 180 186 179 178 172 166 170 153 146 135 146 139 149 152 142 165 166 154 166 165 173 214 200 195
245 256 265 268 247 224 257 238 165 167 188 196 206 201 197 194 188 188 191 193 194 193 195 196 193 188 193 185 178 168 165 187 168 161 150 152 157 154 134 146 164 162 188 173 183 195 206 226 230
247 255 257 249 249 253 259 280 181 178 183 202 207 204 198 193 190 189 190 192 196 197 193 195 190 190 191 189 190 187 186 190 183 175 153 155 159 160 156 157 165 177 188 170 205 190 203 214 217
253 253 244 246 255 260 250 268 259 157 227 223 208 204 198 192 190 189 191 192 194 192 191 188 186 188 189 191 191 197 200 196 185 168 155 166 157 167 172 163 172 179 199 186 213 218 233 222 232
217 219 225 236 248 250 257 264 272 250 291 291 195 192 192 187 186 187 189 188 191 188 186 182 179 184 187 191 195 201 200 194 184 179 175 177 170 170 180 182 184 192 204 196 209 215 215 237 246
223 236 237 233 234 246 228 254 268 29 19 326 180 174 178 180 182 184 187 187 189 188 187 184 180 182 185 190 195 201 203 197 198 201 192 197 193 186 183 191 193 202 209 213 219 218 242 236 235
227 243 253 267 269 249 214 244 209 94 67 71 120 149 157 166 176 183 187 188 188 188 188 186 183 185 187 190 195 199 203 204 203 201 206 201 210 202 183 195 201 207 213 212 208 220 224 231 237
230 238 260 267 270 269 246 230 198 175 100 85 107 124 145 163 176 184 184 186 186 185 186 188 185 186 189 190 192 197 204 213 211 201 208 210 208 205 196 202 208 213 216 219 222 228 231 230 238
257 249 246 252 261 263 246 240 234 210 223 169 147 146 145 157 168 177 182 183 181 180 180 179 177 177 180 184 193 194 199 204 207 207 207 209 212 217 218 218 217 221 221 221 229 236 237 237 240
218 228 244 253 260 266 266 246 68 170 193 204 176 149 146 163 166 164 169 175 178 175 172 175 177 180 181 183 186 192 193 197 201 203 207 210 216 217 219 221 218 221 226 227 230 235 240 241 243
245 244 238 248 249 253 268 255 81 104 133 145 140 138 132 158 162 161 157 157 169 172 175 178 180 184 185 183 185 189 189 191 199 203 209 213 218 222 222 227 228 231 234 234 234 236 236 239 244
Height
1508 1508 1508 1510 1503 1499 1502 1500 1498 1500 1502 1506 1507 1506 1506 1508 1510 1518 1520 1518 1518 1517 1516 1513 1512 1513 1514 1514 1516 1517 1517 1518 1519 1520 1521 1522 1523 1524 1525 1527 1529 1531 1533 1536 1539 1542 1545 1547 1549
1509 1509 1511 1507 1498 1505 1507 1499 1500 1502 1506 1508 1508 1509 1509 1512 1516 1518 1519 1519 1519 1518 1517 1515 1513 1513 1514 1515 1517 1518 1518 1519 1520 1521 1522 1522 1523 1523 1524 1526 1529 1531 1534 1536 1539 1543 1546 1548 1550
1510 1510 1510 1499 1499 1505 1507 1501 1502 1506 1508 1509 1509 1511 1513 1516 1519 1520 1520 1520 1520 1519 1518 1516 1515 1515 1516 1517 1518 1519 1520 1520 1521 1522 1523 1523 1523 1524 1525 1527 1529 1532 1534 1537 1540 1543 1546 1549 1551
1512 1512 1508 1499 1502 1502 1501 1502 1504 1505 1509 1510 1510 1513 1517 1520 1521 1521 1521 1521 1521 1521 1520 1518 1517 1518 1518 1519 1520 1520 1521 1522 1522 1523 1523 1524 1524 1525 1526 1528 1530 1532 1535 1538 1541 1544 1547 1549 1551
1513 1508 1498 1499 1501 1501 1501 1504 1505 1505 1508 1511 1511 1514 1518 1522 1522 1522 1522 1523 1523 1523 1522 1521 1520 1520 1520 1521 1521 1522 1522 1522 1523 1524 1525 1525 1526 1526 1527 1528 1530 1533 1536 1539 1542 1544 1547 1550 1552
1510 1502 1499 1504 1503 1502 1503 1505 1506 1507 1510 1512 1513 1514 1520 1523 1523 1523 1524 1524 1524 1524 1524 1523 1522 1522 1522 1522 1523 1523 1523 1524 1524 1525 1526 1526 1527 1527 1528 1529 1531 1533 1536 1539 1542 1545 1547 1550 1552
1509 1498 1499 1500 1502 1502 1504 1507 1507 1508 1511 1513 1514 1515 1521 1524 1524 1524 1525 1525 1525 1525 1525 1525 1525 1524 1523 1524 1524 1524 1525 1525 1526 1526 1527 1527 1528 1528 1529 1530 1531 1534 1537 1540 1543 1545 1548 1550 1553
1509 1500 1497 1498 1501 1503 1505 1508 1509 1510 1512 1516 1516 1516 1520 1525 1525 1526 1526 1526 1526 1527 1527 1526 1526 1526 1526 1525 1525 1525 1526 1526 1527 1527 1528 1528 1528 1528 1529 1530 1532 1535 1538 1540 1543 1546 1548 1551 1553
1510 1499 1500 1499 1500 1502 1505 1507 1511 1513 1514 1517 1518 1519 1522 1524 1525 1526 1527 1528 1528 1528 1527 1527 1527 1527 1527 1527 1526 1527 1527 1527 1528 1528 1528 1529 1530 1530 1531 1531 1532 1535 1538 1541 1544 1546 1549 1551 1553
1506 1499 1501 1500 1500 1501 1505 1507 1509 1511 1513 1516 1519 1522 1523 1525 1526 1527 1528 1528 1528 1528 1529 1529 1528 1528 1528 1528 1527 1528 1528 1528 1529 1529 1529 1530 1530 1530 1531 1531 1532 1535 1539 1542 1545 1547 1550 1552 1554
1504 1502 1501 1501 1503 1503 1504 1507 1509 1508 1510 1515 1518 1522 1524 1526 1527 1528 1529 1530 1530 1530 1530 1530 1529 1529 1529 1528 1528 1528 1529 1529 1529 1529 1530 1530 1531 1531 1532 1534 1535 1537 1540 1543 1545 1548 1550 1552 1554
1504 1503 1503 1503 1504 1504 1505 1507 1509 1510 1513 1516 1519 1521 1524 1526 1528 1529 1530 1531 1531 1531 1531 1530 1530 1529 1528 1528 1528 1529 1530 1529 1530 1530 1531 1531 1532 1533 1534 1535 1537 1539 1541 1543 1546 1548 1550 1552 1553
1503 1503 1504 1504 1504 1505 1506 1507 1509 1512 1515 1517 1520 1522 1525 1527 1529 1530 1531 1532 1532 1532 1532 1531 1530 1530 1528 1527 1527 1530 1530 1531 1531 1531 1532 1533 1534 1535 1536 1537 1538 1541 1542 1544 1546 1548 1550 1551 1552
1503 1503 1503 1504 1504 1506 1506 1507 1510 1513 1516 1518 1521 1523 1525 1527 1529 1531 1532 1532 1532 1532 1532 1532 1531 1531 1530 1529 1529 1530 1532 1532 1533 1533 1533 1534 1535 1536 1537 1538 1539 1541 1543 1545 1546 1548 1550 1551 1553
1504 1502 1501 1503 1503 1505 1506 1506 1508 1513 1516 1519 1521 1524 1526 1528 1529 1530 1532 1532 1533 1533 1533 1533 1532 1532 1531 1531 1531 1532 1533 1533 1534 1534 1534 1535 1536 1537 1538 1539 1540 1542 1543 1545 1547 1548 1550 1551 1553
1500 1498 1500 1501 1502 1504 1506 1507 1508 1513 1516 1518 1521 1524 1526 1528 1530 1531 1532 1532 1533 1533 1533 1533 1533 1533 1532 1533 1533 1534 1535 1535 1535 1535 1536 1536 1536 1538 1539 1540 1541 1542 1544 1546 1547 1549 1550 1551 1552
1498 1500 1501 1501 1501 1502 1503 1505 1508 1512 1514 1517 1520 1523 1525 1528 1529 1530 1531 1532 1533 1533 1533 1533 1533 1533 1533 1533 1534 1535 1535 1535 1536 1537 1537 1537 1537 1538 1540 1541 1542 1543 1545 1546 1548 1549 1550 1551 1552
1503 1500 1500 1501 1499 1501 1502 1503 1506 1511 1513 1515 1518 1521 1524 1526 1528 1530 1531 1532 1532 1533 1533 1533 1533 1533 1534 1534 1535 1535 1536 1536 1537 1538 1538 1538 1538 1539 1541 1542 1543 1544 1545 1546 1548 1549 1550 1551 1552
1497 1500 1501 1500 1499 1501 1502 1503 1504 1509 1511 1513 1516 1519 1521 1524 1527 1529 1530 1531 1532 1532 1532 1533 1533 1533 1534 1534 1535 1536 1537 1537 1538 1538 1539 1539 1539 1540 1541 1543 1543 1544 1545 1546 1548 1549 1550 1551 1552
1498 1501 1501 1499 1499 1502 1502 1502 1502 1507 1509 1511 1513 1516 1519 1522 1525 1527 1528 1529 1530 1531 1531 1532 1533 1533 1533 1534 1534 1536 1537 1538 1539 1540 1539 1540 1540 1541 1542 1542 1543 1544 1545 1546 1547 1548 1550 1551 1551
1498 1499 1500 1501 1499 1499 1501 1502 1502 1504 1508 1510 1512 1514 1516 1519 1522 1525 1527 1528 1529 1530 1530 1531 1532 1532 1533 1534 1535 1536 1537 1539 1540 1540 1541 1541 1541 1542 1542 1543 1544 1544 1545 1546 1547 1548 1549 1550 1551
1500 1494 1497 1499 1501 1501 1501 1509 1500 1500 1504 1507 1509 1511 1513 1516 1519 1522 1524 1526 1527 1528 1529 1530 1531 1532 1532 1533 1534 1536 1537 1539 1540 1541 1541 1542 1542 1542 1543 1543 1543 1544 1546 1546 1547 1548 1549 1549 1550
1496 1495 1496 1497 1498 1500 1499 1503 1500 1497 1502 1503 1506 1508 1510 1514 1517 1520 1522 1523 1525 1527 1528 1529 1530 1531 1532 1533 1534 1535 1537 1538 1540 1540 1541 1542 1542 1543 1543 1543 1544 1544 1545 1546 1547 1547 1548 1549 1549
1495 1496 1496 1495 1495 1508 1502 1504 1505 1496 1500 1500 1503 1506 1509 1512 1515 1518 1520 1522 1523 1525 1526 1528 1528 1529 1530 1532 1533 1534 1536 1537 1538 1539 1540 1541 1542 1542 1543 1544 1544 1544 1545 1545 1546 1546 1547 1547 1547
1495 1498 1506 1509 1507 1506 1497 1502 1503 1496 1498 1500 1502 1505 1507 1510 1513 1515 1517 1519 1521 1523 1524 1526 1526 1528 1529 1531 1532 1533 1535 1536 1537 1538 1540 1541 1542 1542 1542 1543 1543 1544 1544 1544 1545 1545 1545 1546 1546
1492 1494 1506 1515 1510 1501 1498 1501 1496 1496 1498 1501 1502 1503 1506 1508 1511 1513 1515 1517 1519 1520 1522 1523 1524 1526 1527 1529 1530 1532 1534 1536 1537 1538 1539 1540 1541 1541 1541 1542 1542 1542 1542 1543 1543 1543 1544 1544 1544
1491 1491 1486 1494 1498 1503 1497 1494 1494 1495 1498 1500 1501 1503 1504 1507 1509 1511 1513 1515 1516 1518 1519 1521 1522 1524 1526 1527 1529 1530 1532 1534 1535 1536 1537 1538 1539 1540 1540 1540 1540 1540 1541 1541 1541 1541 1542 1542 1542
1489 1487 1490 1495 1510 1512 1502 1497 1495 1495 1497 1498 1500 1502 1504 1506 1508 1510 1511 1513 1514 1516 1517 1519 1520 1522 1523 1525 1527 1529 1530 1531 1533 1534 1535 1536 1536 1537 1538 1538 1538 1539 1539 1539 1539 1539 1539 1540 1540
1491 1491 1491 1491 1494 1506 1508 1499 1487 1493 1495 1497 1499 1502 1504 1506 1507 1508 1510 1511 1513 1514 1516 1517 1519 1520 1522 1523 1525 1527 1528 1529 1531 1531 1532 1533 1534 1535 1535 1536 1536 1536 1537 1537 1537 1537 1537 1537 1537
1487 1487 1490 1499 1500 1496 1499 1499 1489 1492 1495 1497 1499 1502 1504 1505 1506 1508 1509 1510 1511 1513 1514 1516 1517 1519 1520 1522 1523 1525 1526 1527 1528 1529 1530 1530 1531 1532 1532 1533 1533 1534 1534 1534 1534 1534 1535 1535 1535